Time,TemperatureF,DewpointF,PressureIn,WindDirection,WindDirectionDegrees,WindSpeedMPH,WindSpeedGustMPH,Humidity,HourlyPrecipIn,Conditions,Clouds,dailyrainin,SoftwareType,DateUTC
2013-06-05 00:04:00,55.1,49.4,31.12,West,281,0.0,6.0,81,0.00,,---,0.00,VWS V13.01,2013-06-05 07:04:00,
2013-06-05 00:09:00,55.1,49.4,31.12,WNW,291,0.0,6.0,81,0.00,,---,0.00,VWS V13.01,2013-06-05 07:09:00,
2013-06-05 00:14:00,55.1,49.4,28.86,West,280,1.0,6.0,81,0.00,,---,0.00,VWS V13.01,2013-06-05 07:14:00,
2013-06-05 00:19:00,55.2,49.5,26.61,West,279,0.0,6.0,81,0.00,,---,0.00,VWS V13.01,2013-06-05 07:19:00,
2013-06-05 00:24:00,55.2,49.5,26.59,WNW,291,0.0,6.0,81,0.00,,---,0.00,VWS V13.01,2013-06-05 07:24:00,
2013-06-05 00:29:00,55.3,49.6,26.59,WNW,289,0.0,6.0,81,0.00,,---,0.00,VWS V13.01,2013-06-05 07:29:00,
2013-06-05 00:34:00,55.3,49.2,26.59,West,271,2.0,6.0,80,0.00,,---,0.00,VWS V13.01,2013-06-05 07:34:00,
2013-06-05 00:39:00,55.3,49.2,26.59,West,272,1.0,7.0,80,0.00,,---,0.00,VWS V13.01,2013-06-05 07:39:00,
2013-06-05 00:44:00,55.3,49.2,26.59,SW,235,0.0,7.0,80,0.00,,---,0.00,VWS V13.01,2013-06-05 07:44:00,
2013-06-05 00:49:00,55.3,49.2,22.00,WNW,303,2.0,7.0,80,0.00,,---,0.00,VWS V13.01,2013-06-05 07:49:00,
2013-06-05 00:54:00,55.4,49.3,22.00,West,281,0.0,7.0,80,0.00,,---,0.00,VWS V13.01,2013-06-05 07:54:00,
2013-06-05 00:58:00,55.4,49.3,17.45,WSW,256,0.0,7.0,80,0.00,,---,0.00,VWS V13.01,2013-06-05 07:58:00,
2013-06-05 01:06:00,55.4,49.3,17.45,West,270,1.0,7.0,80,0.00,,---,0.00,VWS V13.01,2013-06-05 08:06:00,
2013-06-05 01:11:00,55.3,49.2,17.56,West,278,1.0,4.0,80,0.00,,---,0.00,VWS V13.01,2013-06-05 08:11:00,
2013-06-05 01:16:00,55.3,49.2,17.59,WNW,303,0.0,5.0,80,0.00,,---,0.00,VWS V13.01,2013-06-05 08:16:00,
2013-06-05 01:21:00,55.3,49.2,17.59,WNW,302,0.0,5.0,80,0.00,,---,0.00,VWS V13.01,2013-06-05 08:21:00,
2013-06-05 01:26:00,55.3,49.2,17.59,WNW,300,3.0,5.0,80,0.00,,---,0.00,VWS V13.01,2013-06-05 08:26:00,
2013-06-05 01:31:00,55.2,49.2,22.10,West,263,0.0,5.0,80,0.00,,---,0.00,VWS V13.01,2013-06-05 08:31:00,
2013-06-05 01:37:00,55.2,49.2,19.85,SW,235,1.0,5.0,80,0.00,,---,0.00,VWS V13.01,2013-06-05 08:37:00,
2013-06-05 01:42:00,55.2,49.2,19.85,WNW,302,3.0,5.0,80,0.00,,---,0.00,VWS V13.01,2013-06-05 08:42:00,
2013-06-05 01:47:00,55.1,49.0,17.59,WNW,283,0.0,5.0,80,0.00,,---,0.00,VWS V13.01,2013-06-05 08:47:00,
2013-06-05 01:51:00,55.1,49.0,17.59,West,274,5.0,6.0,80,0.00,,---,0.00,VWS V13.01,2013-06-05 08:51:00,
2013-06-05 01:57:00,55.0,49.3,22.10,NNW,336,0.0,6.0,81,0.00,,---,0.00,VWS V13.01,2013-06-05 08:57:00,
2013-06-05 02:02:00,55.0,49.3,24.36,NW,306,0.0,6.0,81,0.00,,---,0.00,VWS V13.01,2013-06-05 09:02:00,
2013-06-05 02:07:00,55.0,49.3,28.86,West,267,3.0,5.0,81,0.00,,---,0.00,VWS V13.01,2013-06-05 09:07:00,
2013-06-05 02:12:00,55.0,49.0,28.86,WNW,298,0.0,5.0,80,0.00,,---,0.00,VWS V13.01,2013-06-05 09:12:00,
2013-06-05 02:17:00,55.0,49.3,28.86,NW,319,0.0,5.0,81,0.00,,---,0.00,VWS V13.01,2013-06-05 09:17:00,
2013-06-05 02:22:00,55.0,49.0,26.61,West,279,0.0,5.0,80,0.00,,---,0.00,VWS V13.01,2013-06-05 09:22:00,
2013-06-05 02:27:00,55.0,49.0,24.36,West,279,0.0,5.0,80,0.00,,---,0.00,VWS V13.01,2013-06-05 09:27:00,
2013-06-05 02:32:00,55.0,49.0,28.86,WSW,254,1.0,6.0,80,0.00,,---,0.00,VWS V13.01,2013-06-05 09:32:00,
2013-06-05 02:37:00,54.9,48.9,31.12,West,264,0.0,6.0,80,0.00,,---,0.00,VWS V13.01,2013-06-05 09:37:00,
2013-06-05 02:42:00,54.9,48.9,31.12,NW,306,0.0,6.0,80,0.00,,---,0.00,VWS V13.01,2013-06-05 09:42:00,
2013-06-05 02:47:00,54.9,48.9,28.86,West,277,1.0,6.0,80,0.00,,---,0.00,VWS V13.01,2013-06-05 09:47:00,
2013-06-05 02:52:00,54.9,48.9,28.86,WNW,295,4.0,6.0,80,0.00,,---,0.00,VWS V13.01,2013-06-05 09:52:00,
2013-06-05 02:57:00,54.9,48.9,28.86,WSW,240,0.0,6.0,80,0.00,,---,0.00,VWS V13.01,2013-06-05 09:57:00,
2013-06-05 03:02:00,54.9,48.9,28.86,West,261,0.0,6.0,80,0.00,,---,0.00,VWS V13.01,2013-06-05 10:02:00,
2013-06-05 03:07:00,54.9,48.9,28.86,West,260,0.0,2.0,80,0.00,,---,0.00,VWS V13.01,2013-06-05 10:07:00,
2013-06-05 03:12:00,54.9,48.9,28.86,West,259,0.0,5.0,80,0.00,,---,0.00,VWS V13.01,2013-06-05 10:12:00,
2013-06-05 03:17:00,54.9,48.9,28.86,West,264,0.0,5.0,80,0.00,,---,0.00,VWS V13.01,2013-06-05 10:17:00,
2013-06-05 03:22:00,54.9,48.9,28.86,WNW,286,4.0,5.0,80,0.00,,---,0.00,VWS V13.01,2013-06-05 10:22:00,
2013-06-05 03:27:00,54.8,48.8,28.86,West,265,0.0,5.0,80,0.00,,---,0.00,VWS V13.01,2013-06-05 10:27:00,
2013-06-05 03:32:00,54.8,48.8,28.86,WNW,299,6.0,6.0,80,0.00,,---,0.00,VWS V13.01,2013-06-05 10:32:00,
2013-06-05 03:37:00,54.6,48.6,28.86,WNW,287,0.0,6.0,80,0.00,,---,0.00,VWS V13.01,2013-06-05 10:37:00,
2013-06-05 03:42:00,54.6,48.9,29.78,WNW,288,0.0,6.0,81,0.00,,---,0.00,VWS V13.01,2013-06-05 10:42:00,
2013-06-05 03:47:00,54.6,48.9,29.78,NW,307,0.0,6.0,81,0.00,,---,0.00,VWS V13.01,2013-06-05 10:47:00,
2013-06-05 03:52:00,54.6,49.2,29.78,NW,311,0.0,6.0,82,0.00,,---,0.00,VWS V13.01,2013-06-05 10:52:00,
2013-06-05 03:57:00,54.6,49.2,29.78,NW,319,0.0,6.0,82,0.00,,---,0.00,VWS V13.01,2013-06-05 10:57:00,
2013-06-05 04:02:00,54.5,49.1,29.78,NW,323,0.0,6.0,82,0.00,,---,0.00,VWS V13.01,2013-06-05 11:02:00,
2013-06-05 04:07:00,54.4,49.0,29.78,NW,324,0.0,3.0,82,0.00,,---,0.00,VWS V13.01,2013-06-05 11:07:00,
2013-06-05 04:12:00,54.3,48.9,29.78,NNW,333,3.0,4.0,82,0.00,,---,0.00,VWS V13.01,2013-06-05 11:12:00,
2013-06-05 04:17:00,54.3,49.3,29.78,West,278,3.0,4.0,83,0.00,,---,0.00,VWS V13.01,2013-06-05 11:17:00,
2013-06-05 04:22:00,54.2,49.2,29.78,WNW,300,0.0,5.0,83,0.00,,---,0.00,VWS V13.01,2013-06-05 11:22:00,
2013-06-05 04:27:00,54.1,49.1,29.78,WNW,303,0.0,5.0,83,0.00,,---,0.00,VWS V13.01,2013-06-05 11:27:00,
2013-06-05 04:32:00,54.1,49.1,29.78,NW,308,0.0,5.0,83,0.00,,---,0.00,VWS V13.01,2013-06-05 11:32:00,
2013-06-05 04:37:00,54.0,49.0,29.78,WNW,288,0.0,5.0,83,0.00,,---,0.00,VWS V13.01,2013-06-05 11:37:00,
2013-06-05 04:42:00,53.9,48.9,29.78,West,279,2.0,6.0,83,0.00,,---,0.00,VWS V13.01,2013-06-05 11:42:00,
2013-06-05 04:47:00,53.9,48.9,29.78,West,264,0.0,6.0,83,0.00,,---,0.00,VWS V13.01,2013-06-05 11:47:00,
2013-06-05 04:52:00,53.9,49.2,29.78,West,281,0.0,6.0,84,0.00,,---,0.00,VWS V13.01,2013-06-05 11:52:00,
2013-06-05 04:57:00,54.0,49.0,29.78,NNW,328,2.0,6.0,83,0.00,,---,0.00,VWS V13.01,2013-06-05 11:57:00,
2013-06-05 05:02:00,53.9,49.2,29.78,WNW,286,0.0,6.0,84,0.00,,---,0.00,VWS V13.01,2013-06-05 12:02:00,
2013-06-05 05:07:00,53.9,49.2,29.78,West,280,4.0,5.0,84,0.00,,---,0.00,VWS V13.01,2013-06-05 12:07:00,
2013-06-05 05:12:00,54.0,49.3,29.78,WNW,287,1.0,7.0,84,0.00,,---,0.00,VWS V13.01,2013-06-05 12:12:00,
2013-06-05 05:17:00,53.9,49.2,29.78,WNW,291,0.0,7.0,84,0.00,,---,0.00,VWS V13.01,2013-06-05 12:17:00,
2013-06-05 05:22:00,53.8,49.1,29.78,WNW,288,0.0,7.0,84,0.00,,---,0.00,VWS V13.01,2013-06-05 12:22:00,
2013-06-05 05:27:00,53.9,49.2,29.78,WNW,302,1.0,7.0,84,0.00,,---,0.00,VWS V13.01,2013-06-05 12:27:00,
2013-06-05 05:32:00,53.9,49.2,29.78,West,280,0.0,7.0,84,0.00,,---,0.00,VWS V13.01,2013-06-05 12:32:00,
2013-06-05 05:37:00,53.9,49.2,29.78,NW,318,1.0,7.0,84,0.00,,---,0.00,VWS V13.01,2013-06-05 12:37:00,
2013-06-05 05:42:00,53.9,49.2,29.78,NW,306,1.0,7.0,84,0.00,,---,0.00,VWS V13.01,2013-06-05 12:42:00,
2013-06-05 05:47:00,54.0,49.3,29.78,NW,308,0.0,7.0,84,0.00,,---,0.00,VWS V13.01,2013-06-05 12:47:00,
2013-06-05 05:52:00,53.9,49.2,29.78,WNW,296,0.0,7.0,84,0.00,,---,0.00,VWS V13.01,2013-06-05 12:52:00,
2013-06-05 05:57:00,53.9,49.2,29.78,WNW,292,4.0,7.0,84,0.00,,---,0.00,VWS V13.01,2013-06-05 12:57:00,
2013-06-05 06:02:00,53.8,49.1,29.78,WNW,288,0.0,1.0,84,0.00,,---,0.00,VWS V13.01,2013-06-05 13:02:00,
2013-06-05 06:07:00,53.7,49.0,28.50,West,281,0.0,5.0,84,0.00,,---,0.00,VWS V13.01,2013-06-05 13:07:00,
2013-06-05 06:12:00,53.7,49.0,28.50,WNW,291,0.0,5.0,84,0.00,,---,0.00,VWS V13.01,2013-06-05 13:12:00,
2013-06-05 06:17:00,53.9,49.2,28.50,WNW,291,0.0,5.0,84,0.00,,---,0.00,VWS V13.01,2013-06-05 13:17:00,
2013-06-05 06:22:00,53.9,49.2,28.50,NW,315,0.0,5.0,84,0.00,,---,0.00,VWS V13.01,2013-06-05 13:22:00,
2013-06-05 06:27:00,53.9,49.2,28.50,NW,314,0.0,5.0,84,0.00,,---,0.00,VWS V13.01,2013-06-05 13:27:00,
2013-06-05 06:32:00,54.0,49.3,28.50,West,264,0.0,5.0,84,0.00,,---,0.00,VWS V13.01,2013-06-05 13:32:00,
2013-06-05 06:37:00,54.1,49.1,28.50,West,264,0.0,5.0,83,0.00,,---,0.00,VWS V13.01,2013-06-05 13:37:00,
2013-06-05 06:42:00,54.1,49.1,28.50,WSW,241,0.0,5.0,83,0.00,,---,0.00,VWS V13.01,2013-06-05 13:42:00,
2013-06-05 06:47:00,54.1,49.1,28.50,WSW,241,0.0,5.0,83,0.00,,---,0.00,VWS V13.01,2013-06-05 13:47:00,
2013-06-05 06:52:00,54.2,49.2,28.50,WSW,241,0.0,5.0,83,0.00,,---,0.00,VWS V13.01,2013-06-05 13:52:00,
2013-06-05 06:57:00,54.2,49.2,28.50,NW,304,0.0,5.0,83,0.00,,---,0.00,VWS V13.01,2013-06-05 13:57:00,
2013-06-05 07:02:00,54.1,49.1,28.50,West,275,0.0,0.0,83,0.00,,---,0.00,VWS V13.01,2013-06-05 14:02:00,
2013-06-05 07:07:00,54.0,49.3,28.50,WNW,282,4.0,5.0,84,0.00,,---,0.00,VWS V13.01,2013-06-05 14:07:00,
2013-06-05 07:12:00,53.8,49.1,27.43,WNW,284,0.0,5.0,84,0.00,,---,0.00,VWS V13.01,2013-06-05 14:12:00,
2013-06-05 07:17:00,53.9,49.2,27.43,WSW,252,0.0,5.0,84,0.00,,---,0.00,VWS V13.01,2013-06-05 14:17:00,
2013-06-05 07:22:00,54.0,49.3,27.43,WNW,287,2.0,5.0,84,0.00,,---,0.00,VWS V13.01,2013-06-05 14:22:00,
2013-06-05 07:27:00,54.2,49.5,27.43,SW,229,0.0,5.0,84,0.00,,---,0.00,VWS V13.01,2013-06-05 14:27:00,
2013-06-05 07:32:00,54.4,49.3,27.43,SW,230,0.0,5.0,83,0.00,,---,0.00,VWS V13.01,2013-06-05 14:32:00,
2013-06-05 07:37:00,54.4,49.3,27.43,SW,230,0.0,5.0,83,0.00,,---,0.00,VWS V13.01,2013-06-05 14:37:00,
2013-06-05 07:42:00,54.6,49.5,27.43,West,281,0.0,5.0,83,0.00,,---,0.00,VWS V13.01,2013-06-05 14:42:00,
2013-06-05 07:47:00,54.5,49.5,27.43,West,281,0.0,5.0,83,0.00,,---,0.00,VWS V13.01,2013-06-05 14:47:00,
2013-06-05 07:52:00,54.7,49.7,27.43,WNW,294,0.0,5.0,83,0.00,,---,0.00,VWS V13.01,2013-06-05 14:52:00,
2013-06-05 07:57:00,54.6,49.5,27.43,WNW,301,0.0,5.0,83,0.00,,---,0.00,VWS V13.01,2013-06-05 14:57:00,
2013-06-05 08:02:00,54.8,49.4,27.43,WNW,301,0.0,0.0,82,0.00,,---,0.00,VWS V13.01,2013-06-05 15:02:00,
2013-06-05 08:07:00,54.8,49.4,27.43,NE,50,0.0,2.0,82,0.00,,---,0.00,VWS V13.01,2013-06-05 15:07:00,
2013-06-05 08:12:00,54.9,49.5,27.43,NW,318,0.0,3.0,82,0.00,,---,0.00,VWS V13.01,2013-06-05 15:12:00,
2013-06-05 08:17:00,55.0,49.6,16.14,North,10,0.0,3.0,82,0.00,,---,0.00,VWS V13.01,2013-06-05 15:17:00,
2013-06-05 08:22:00,55.1,49.7,16.14,North,5,0.0,3.0,82,0.00,,---,0.00,VWS V13.01,2013-06-05 15:22:00,
2013-06-05 08:27:00,55.1,49.7,28.50,WNW,292,0.0,6.0,82,0.00,,---,0.00,VWS V13.01,2013-06-05 15:27:00,
2013-06-05 08:32:00,55.3,49.9,28.50,West,274,0.0,6.0,82,0.00,,---,0.00,VWS V13.01,2013-06-05 15:32:00,
2013-06-05 08:37:00,55.7,50.3,28.50,West,274,0.0,6.0,82,0.00,,---,0.00,VWS V13.01,2013-06-05 15:37:00,
2013-06-05 08:42:00,56.0,50.3,28.50,West,274,0.0,6.0,81,0.00,,---,0.00,VWS V13.01,2013-06-05 15:42:00,
2013-06-05 08:47:00,56.2,50.5,28.50,NW,325,2.0,6.0,81,0.00,,---,0.00,VWS V13.01,2013-06-05 15:47:00,
2013-06-05 08:52:00,56.1,50.4,28.50,NNW,330,0.0,6.0,81,0.00,,---,0.00,VWS V13.01,2013-06-05 15:52:00,
2013-06-05 08:57:00,56.2,50.5,28.50,NW,321,1.0,6.0,81,0.00,,---,0.00,VWS V13.01,2013-06-05 15:57:00,
2013-06-05 09:02:00,56.2,50.1,28.50,NNW,329,0.0,0.0,80,0.00,,---,0.00,VWS V13.01,2013-06-05 16:02:00,
2013-06-05 09:07:00,56.2,50.5,28.50,NW,320,0.0,3.0,81,0.00,,---,0.00,VWS V13.01,2013-06-05 16:07:00,
2013-06-05 09:12:00,56.2,50.1,29.78,NW,323,1.0,3.0,80,0.00,,---,0.00,VWS V13.01,2013-06-05 16:12:00,
2013-06-05 09:17:00,56.2,50.5,29.78,NW,306,0.0,5.0,81,0.00,,---,0.00,VWS V13.01,2013-06-05 16:17:00,
2013-06-05 09:22:00,56.4,50.3,29.78,North,9,0.0,6.0,80,0.00,,---,0.00,VWS V13.01,2013-06-05 16:22:00,
2013-06-05 09:27:00,56.8,50.7,29.78,NNW,347,0.0,6.0,80,0.00,,---,0.00,VWS V13.01,2013-06-05 16:27:00,
2013-06-05 09:32:00,57.2,50.8,29.78,NW,307,0.0,6.0,79,0.00,,---,0.00,VWS V13.01,2013-06-05 16:32:00,
2013-06-05 09:37:00,57.6,51.1,29.78,NW,308,0.0,6.0,79,0.00,,---,0.00,VWS V13.01,2013-06-05 16:37:00,
2013-06-05 09:42:00,58.1,51.3,29.78,West,265,0.0,6.0,78,0.00,,---,0.00,VWS V13.01,2013-06-05 16:42:00,
2013-06-05 09:47:00,58.4,51.2,29.78,WNW,288,0.0,6.0,77,0.00,,---,0.00,VWS V13.01,2013-06-05 16:47:00,
2013-06-05 09:52:00,58.5,51.0,29.78,WNW,287,0.0,6.0,76,0.00,,---,0.00,VWS V13.01,2013-06-05 16:52:00,
2013-06-05 09:57:00,58.8,51.3,29.78,WNW,290,0.0,6.0,76,0.00,,---,0.00,VWS V13.01,2013-06-05 16:57:00,
2013-06-05 10:02:00,59.5,51.6,29.78,North,9,1.0,1.0,75,0.00,,---,0.00,VWS V13.01,2013-06-05 17:02:00,
2013-06-05 10:07:00,60.0,51.7,29.78,ENE,71,0.0,3.0,74,0.00,,---,0.00,VWS V13.01,2013-06-05 17:07:00,
2013-06-05 10:12:00,60.6,52.3,29.78,ESE,113,0.0,4.0,74,0.00,,---,0.00,VWS V13.01,2013-06-05 17:12:00,
2013-06-05 10:17:00,61.1,52.0,29.78,ENE,74,0.0,4.0,72,0.00,,---,0.00,VWS V13.01,2013-06-05 17:17:00,
2013-06-05 10:22:00,61.5,52.0,31.12,WNW,284,1.0,5.0,71,0.00,,---,0.00,VWS V13.01,2013-06-05 17:22:00,
2013-06-05 10:27:00,61.5,52.0,31.12,WNW,287,4.0,7.0,71,0.00,,---,0.00,VWS V13.01,2013-06-05 17:27:00,
2013-06-05 10:32:00,60.9,52.2,31.12,West,272,0.0,7.0,73,0.00,,---,0.00,VWS V13.01,2013-06-05 17:32:00,
2013-06-05 10:37:00,61.5,52.8,26.61,West,261,0.0,7.0,73,0.00,,---,0.00,VWS V13.01,2013-06-05 17:37:00,
2013-06-05 10:42:00,62.3,52.4,26.61,East,84,0.0,7.0,70,0.00,,---,0.00,VWS V13.01,2013-06-05 17:42:00,
2013-06-05 10:47:00,63.0,53.1,26.61,SSW,196,0.0,7.0,70,0.00,,---,0.00,VWS V13.01,2013-06-05 17:47:00,
2013-06-05 10:52:00,64.0,53.2,26.61,South,170,0.0,7.0,68,0.00,,---,0.00,VWS V13.01,2013-06-05 17:52:00,
2013-06-05 10:57:00,64.3,53.5,17.59,SW,231,0.0,7.0,68,0.00,,---,0.00,VWS V13.01,2013-06-05 17:57:00,
2013-06-05 11:02:00,63.9,52.7,17.59,West,259,2.0,3.0,67,0.00,,---,0.00,VWS V13.01,2013-06-05 18:02:00,
2013-06-05 11:07:00,63.3,53.4,17.59,ESE,103,4.0,6.0,70,0.00,,---,0.00,VWS V13.01,2013-06-05 18:07:00,
2013-06-05 11:12:00,63.9,53.5,17.59,East,86,2.0,6.0,69,0.00,,---,0.00,VWS V13.01,2013-06-05 18:12:00,
2013-06-05 11:17:00,64.3,53.5,17.59,East,88,0.0,6.0,68,0.00,,---,0.00,VWS V13.01,2013-06-05 18:17:00,
2013-06-05 11:22:00,64.9,53.7,17.59,WNW,303,0.0,6.0,67,0.00,,---,0.00,VWS V13.01,2013-06-05 18:22:00,
2013-06-05 11:27:00,64.9,52.9,17.59,West,280,2.0,6.0,65,0.00,,---,0.00,VWS V13.01,2013-06-05 18:27:00,
2013-06-05 11:32:00,64.6,53.4,17.59,East,101,3.0,6.0,67,0.00,,---,0.00,VWS V13.01,2013-06-05 18:32:00,
2013-06-05 11:37:00,65.1,54.3,17.59,ENE,67,0.0,6.0,68,0.00,,---,0.00,VWS V13.01,2013-06-05 18:37:00,
2013-06-05 11:42:00,66.0,54.7,16.51,ESE,123,0.0,6.0,67,0.00,,---,0.00,VWS V13.01,2013-06-05 18:42:00,
2013-06-05 11:47:00,66.8,55.1,16.51,East,94,0.0,6.0,66,0.00,,---,0.00,VWS V13.01,2013-06-05 18:47:00,
2013-06-05 11:52:00,67.2,55.5,16.51,ENE,60,5.0,9.0,66,0.00,,---,0.00,VWS V13.01,2013-06-05 18:52:00,
2013-06-05 11:57:00,67.1,55.0,16.50,ESE,115,0.0,9.0,65,0.00,,---,0.00,VWS V13.01,2013-06-05 18:57:00,
2013-06-05 12:02:00,67.5,54.5,16.50,North,349,2.0,9.0,63,0.00,,---,0.00,VWS V13.01,2013-06-05 19:02:00,
2013-06-05 12:07:00,67.5,54.9,16.50,NE,49,0.0,5.0,64,0.00,,---,0.00,VWS V13.01,2013-06-05 19:07:00,
2013-06-05 12:12:00,67.9,56.1,16.50,ESE,103,1.0,7.0,66,0.00,,---,0.00,VWS V13.01,2013-06-05 19:12:00,
2013-06-05 12:17:00,68.3,55.2,16.50,ENE,65,1.0,7.0,63,0.00,,---,0.00,VWS V13.01,2013-06-05 19:17:00,
2013-06-05 12:22:00,68.5,55.4,20.60,WSW,250,0.0,7.0,63,0.00,,---,0.00,VWS V13.01,2013-06-05 19:22:00,
2013-06-05 12:27:00,68.7,54.7,20.60,ESE,107,0.0,7.0,61,0.00,,---,0.00,VWS V13.01,2013-06-05 19:27:00,
2013-06-05 12:32:00,68.7,55.2,20.60,ENE,71,0.0,7.0,62,0.00,,---,0.00,VWS V13.01,2013-06-05 19:32:00,
2013-06-05 12:37:00,69.1,55.1,20.60,NE,41,0.0,7.0,61,0.00,,---,0.00,VWS V13.01,2013-06-05 19:37:00,
2013-06-05 12:42:00,69.7,55.2,20.60,East,80,0.0,7.0,60,0.00,,---,0.00,VWS V13.01,2013-06-05 19:42:00,
2013-06-05 12:47:00,70.2,56.1,20.60,SSE,165,0.0,7.0,61,0.00,,---,0.00,VWS V13.01,2013-06-05 19:47:00,
2013-06-05 12:52:00,71.1,56.1,20.60,SSW,195,0.0,7.0,59,0.00,,---,0.00,VWS V13.01,2013-06-05 19:52:00,
2013-06-05 12:57:00,72.0,56.0,20.60,SSE,159,1.0,7.0,57,0.00,,---,0.00,VWS V13.01,2013-06-05 19:57:00,
2013-06-05 13:02:00,72.9,55.8,20.60,SSW,209,5.0,5.0,55,0.00,,---,0.00,VWS V13.01,2013-06-05 20:02:00,
2013-06-05 13:07:00,73.4,55.8,20.60,WSW,239,0.0,7.0,54,0.00,,---,0.00,VWS V13.01,2013-06-05 20:07:00,
2013-06-05 13:12:00,73.6,56.0,20.60,SSE,160,1.0,7.0,54,0.00,,---,0.00,VWS V13.01,2013-06-05 20:12:00,
2013-06-05 13:17:00,73.9,55.7,20.60,SSE,161,0.0,7.0,53,0.00,,---,0.00,VWS V13.01,2013-06-05 20:17:00,
2013-06-05 13:22:00,74.4,56.2,20.60,SSE,161,0.0,7.0,53,0.00,,---,0.00,VWS V13.01,2013-06-05 20:22:00,
2013-06-05 13:27:00,74.9,56.1,20.60,SSW,194,0.0,8.0,52,0.00,,---,0.00,VWS V13.01,2013-06-05 20:27:00,
2013-06-05 13:32:00,75.2,56.4,20.60,South,179,0.0,8.0,52,0.00,,---,0.00,VWS V13.01,2013-06-05 20:32:00,
2013-06-05 13:37:00,75.5,56.7,20.60,South,190,0.0,10.0,52,0.00,,---,0.00,VWS V13.01,2013-06-05 20:37:00,
2013-06-05 13:42:00,75.5,56.1,20.60,SSW,209,4.0,10.0,51,0.00,,---,0.00,VWS V13.01,2013-06-05 20:42:00,
2013-06-05 13:47:00,75.5,55.6,20.60,SSE,160,0.0,10.0,50,0.00,,---,0.00,VWS V13.01,2013-06-05 20:47:00,
2013-06-05 13:52:00,75.6,55.7,20.60,SSW,195,1.0,10.0,50,0.00,,---,0.00,VWS V13.01,2013-06-05 20:52:00,
2013-06-05 13:57:00,75.8,55.9,20.60,SSE,160,0.0,10.0,50,0.00,,---,0.00,VWS V13.01,2013-06-05 20:57:00,
2013-06-05 14:02:00,76.0,56.0,20.60,SSE,165,1.0,1.0,50,0.00,,---,0.00,VWS V13.01,2013-06-05 21:02:00,
2013-06-05 14:07:00,76.2,55.7,20.60,SSE,158,1.0,10.0,49,0.00,,---,0.00,VWS V13.01,2013-06-05 21:07:00,
2013-06-05 14:12:00,76.1,56.1,20.60,SSW,198,0.0,10.0,50,0.00,,---,0.00,VWS V13.01,2013-06-05 21:12:00,
2013-06-05 14:17:00,76.1,56.1,20.60,SSW,204,0.0,10.0,50,0.00,,---,0.00,VWS V13.01,2013-06-05 21:17:00,
2013-06-05 14:22:00,76.5,55.9,20.60,SW,220,1.0,10.0,49,0.00,,---,0.00,VWS V13.01,2013-06-05 21:22:00,
2013-06-05 14:27:00,76.7,55.5,20.60,South,175,4.0,10.0,48,0.00,,---,0.00,VWS V13.01,2013-06-05 21:27:00,
2013-06-05 14:32:00,77.1,55.9,20.60,SSW,206,3.0,11.0,48,0.00,,---,0.00,VWS V13.01,2013-06-05 21:32:00,
2013-06-05 14:37:00,77.4,56.2,20.60,SSE,153,0.0,11.0,48,0.00,,---,0.00,VWS V13.01,2013-06-05 21:37:00,
2013-06-05 14:42:00,77.9,56.1,20.60,South,173,2.0,11.0,47,0.00,,---,0.00,VWS V13.01,2013-06-05 21:42:00,
2013-06-05 14:47:00,78.4,56.5,20.60,South,190,0.0,11.0,47,0.00,,---,0.00,VWS V13.01,2013-06-05 21:47:00,
2013-06-05 14:52:00,79.0,56.5,20.60,SW,214,0.0,11.0,46,0.00,,---,0.00,VWS V13.01,2013-06-05 21:52:00,
2013-06-05 14:57:00,79.1,56.6,20.60,SSE,167,4.0,11.0,46,0.00,,---,0.00,VWS V13.01,2013-06-05 21:57:00,
2013-06-05 15:02:00,79.0,56.5,20.60,WNW,288,0.0,11.0,46,0.00,,---,0.00,VWS V13.01,2013-06-05 22:02:00,
2013-06-05 15:07:00,78.7,56.2,20.60,SSW,192,1.0,5.0,46,0.00,,---,0.00,VWS V13.01,2013-06-05 22:07:00,
2013-06-05 15:12:00,78.9,56.4,20.60,South,169,1.0,8.0,46,0.00,,---,0.00,VWS V13.01,2013-06-05 22:12:00,
2013-06-05 15:17:00,79.3,56.8,20.60,SSW,196,2.0,8.0,46,0.00,,---,0.00,VWS V13.01,2013-06-05 22:17:00,
2013-06-05 15:22:00,79.5,56.3,20.60,WSW,248,5.0,8.0,45,0.00,,---,0.00,VWS V13.01,2013-06-05 22:22:00,
2013-06-05 15:27:00,79.2,56.7,20.60,South,170,0.0,8.0,46,0.00,,---,0.00,VWS V13.01,2013-06-05 22:27:00,
2013-06-05 15:32:00,79.4,56.8,20.60,SSE,159,0.0,8.0,46,0.00,,---,0.00,VWS V13.01,2013-06-05 22:32:00,
2013-06-05 15:37:00,79.7,56.5,20.60,SW,226,3.0,8.0,45,0.00,,---,0.00,VWS V13.01,2013-06-05 22:37:00,
2013-06-05 15:42:00,79.6,56.4,20.60,NW,307,0.0,8.0,45,0.00,,---,0.00,VWS V13.01,2013-06-05 22:42:00,
2013-06-05 15:47:00,79.2,56.0,20.60,WSW,244,3.0,8.0,45,0.00,,---,0.00,VWS V13.01,2013-06-05 22:47:00,
2013-06-05 15:52:00,78.2,55.8,20.60,West,265,3.0,8.0,46,0.00,,---,0.00,VWS V13.01,2013-06-05 22:52:00,
2013-06-05 15:57:00,77.4,55.6,20.60,WNW,287,1.0,9.0,47,0.00,,---,0.00,VWS V13.01,2013-06-05 22:57:00,
2013-06-05 16:02:00,77.1,55.9,20.60,WNW,296,4.0,11.0,48,0.00,,---,0.00,VWS V13.01,2013-06-05 23:02:00,
2013-06-05 16:07:00,76.0,55.5,20.60,West,277,6.0,10.0,49,0.00,,---,0.00,VWS V13.01,2013-06-05 23:07:00,
2013-06-05 16:12:00,74.9,55.6,20.60,West,280,7.0,10.0,51,0.00,,---,0.00,VWS V13.01,2013-06-05 23:12:00,
2013-06-05 16:17:00,73.8,55.1,20.60,WNW,288,4.0,12.0,52,0.00,,---,0.00,VWS V13.01,2013-06-05 23:17:00,
2013-06-05 16:22:00,73.2,55.1,20.60,NW,324,4.0,12.0,53,0.00,,---,0.00,VWS V13.01,2013-06-05 23:22:00,
2013-06-05 16:27:00,72.7,54.6,20.60,WNW,296,7.0,12.0,53,0.00,,---,0.00,VWS V13.01,2013-06-05 23:27:00,
2013-06-05 16:32:00,72.5,54.9,20.60,West,272,2.0,12.0,54,0.00,,---,0.00,VWS V13.01,2013-06-05 23:32:00,
2013-06-05 16:37:00,72.8,55.2,29.54,WNW,282,5.0,12.0,54,0.00,,---,0.00,VWS V13.01,2013-06-05 23:37:00,
2013-06-05 16:42:00,73.3,55.7,29.54,West,276,6.0,12.0,54,0.00,,---,0.00,VWS V13.01,2013-06-05 23:42:00,
2013-06-05 16:48:00,73.6,55.4,29.54,NNW,330,5.0,12.0,53,0.00,,---,0.00,VWS V13.01,2013-06-05 23:48:00,
2013-06-05 16:53:00,73.7,55.5,29.54,West,269,0.0,12.0,53,0.00,,---,0.00,VWS V13.01,2013-06-05 23:53:00,
2013-06-05 16:58:00,73.9,55.2,29.54,WNW,288,1.0,12.0,52,0.00,,---,0.00,VWS V13.01,2013-06-05 23:58:00,
2013-06-05 17:03:00,73.9,54.7,29.54,North,360,2.0,6.0,51,0.00,,---,0.00,VWS V13.01,2013-06-06 00:03:00,
2013-06-05 17:08:00,73.3,54.6,29.54,NW,319,8.0,9.0,52,0.00,,---,0.00,VWS V13.01,2013-06-06 00:08:00,
2013-06-05 17:12:00,72.7,54.6,29.54,WSW,240,0.0,9.0,53,0.00,,---,0.00,VWS V13.01,2013-06-06 00:12:00,
2013-06-05 17:17:00,72.2,54.7,29.54,North,355,3.0,11.0,54,0.00,,---,0.00,VWS V13.01,2013-06-06 00:17:00,
2013-06-05 17:22:00,71.8,54.8,29.54,WNW,287,2.0,11.0,55,0.00,,---,0.00,VWS V13.01,2013-06-06 00:22:00,
2013-06-05 17:27:00,71.8,54.8,29.54,WNW,286,2.0,11.0,55,0.00,,---,0.00,VWS V13.01,2013-06-06 00:27:00,
2013-06-05 17:32:00,71.4,54.4,29.54,WNW,298,1.0,15.0,55,0.00,,---,0.00,VWS V13.01,2013-06-06 00:32:00,
2013-06-05 17:37:00,71.4,54.4,29.54,WNW,284,4.0,15.0,55,0.00,,---,0.00,VWS V13.01,2013-06-06 00:37:00,
2013-06-05 17:42:00,70.8,54.3,29.54,NNW,336,4.0,15.0,56,0.00,,---,0.00,VWS V13.01,2013-06-06 00:42:00,
2013-06-05 17:47:00,70.3,54.4,29.54,West,271,7.0,15.0,57,0.00,,---,0.00,VWS V13.01,2013-06-06 00:47:00,
2013-06-05 17:52:00,70.0,54.1,29.54,WNW,294,6.0,15.0,57,0.00,,---,0.00,VWS V13.01,2013-06-06 00:52:00,
2013-06-05 17:57:00,69.4,54.0,29.54,WNW,299,0.0,16.0,58,0.00,,---,0.00,VWS V13.01,2013-06-06 00:57:00,
2013-06-05 18:02:00,69.2,53.8,29.54,West,269,12.0,13.0,58,0.00,,---,0.00,VWS V13.01,2013-06-06 01:02:00,
2013-06-05 18:07:00,69.0,53.6,29.54,WNW,300,3.0,14.0,58,0.00,,---,0.00,VWS V13.01,2013-06-06 01:07:00,
2013-06-05 18:12:00,68.6,53.7,29.54,WNW,299,11.0,14.0,59,0.00,,---,0.00,VWS V13.01,2013-06-06 01:12:00,
2013-06-05 18:17:00,67.9,53.5,29.54,NNW,328,0.0,14.0,60,0.00,,---,0.00,VWS V13.01,2013-06-06 01:17:00,
2013-06-05 18:22:00,67.6,53.2,29.54,West,272,7.0,14.0,60,0.00,,---,0.00,VWS V13.01,2013-06-06 01:22:00,
2013-06-05 18:27:00,67.1,53.2,29.54,WSW,238,4.0,14.0,61,0.00,,---,0.00,VWS V13.01,2013-06-06 01:27:00,
2013-06-05 18:32:00,67.3,53.0,29.54,West,268,1.0,14.0,60,0.00,,---,0.00,VWS V13.01,2013-06-06 01:32:00,
2013-06-05 18:37:00,67.0,52.7,29.54,WNW,291,4.0,14.0,60,0.00,,---,0.00,VWS V13.01,2013-06-06 01:37:00,
2013-06-05 18:42:00,66.9,53.0,29.54,WNW,284,3.0,14.0,61,0.00,,---,0.00,VWS V13.01,2013-06-06 01:42:00,
2013-06-05 18:47:00,66.7,52.8,29.54,West,272,1.0,14.0,61,0.00,,---,0.00,VWS V13.01,2013-06-06 01:47:00,
2013-06-05 18:52:00,66.5,52.7,29.54,WSW,244,0.0,14.0,61,0.00,,---,0.00,VWS V13.01,2013-06-06 01:52:00,
2013-06-05 18:57:00,66.1,52.3,29.54,WSW,244,1.0,14.0,61,0.00,,---,0.00,VWS V13.01,2013-06-06 01:57:00,
2013-06-05 19:02:00,65.9,52.5,29.54,SW,234,1.0,1.0,62,0.00,,---,0.00,VWS V13.01,2013-06-06 02:02:00,
2013-06-05 19:07:00,66.1,52.7,20.60,SW,230,0.0,6.0,62,0.00,,---,0.00,VWS V13.01,2013-06-06 02:07:00,
2013-06-05 19:12:00,65.8,52.4,20.60,WNW,300,0.0,6.0,62,0.00,,---,0.00,VWS V13.01,2013-06-06 02:12:00,
2013-06-05 19:17:00,64.8,51.9,20.60,NW,315,3.0,6.0,63,0.00,,---,0.00,VWS V13.01,2013-06-06 02:17:00,
2013-06-05 19:22:00,64.0,52.0,20.60,NNW,333,0.0,7.0,65,0.00,,---,0.00,VWS V13.01,2013-06-06 02:22:00,
2013-06-05 19:27:00,63.5,52.0,20.60,NNW,344,0.0,7.0,66,0.00,,---,0.00,VWS V13.01,2013-06-06 02:27:00,
2013-06-05 19:32:00,63.0,51.9,20.60,NW,310,2.0,7.0,67,0.00,,---,0.00,VWS V13.01,2013-06-06 02:32:00,
2013-06-05 19:37:00,62.6,51.5,20.60,WNW,298,2.0,7.0,67,0.00,,---,0.00,VWS V13.01,2013-06-06 02:37:00,
2013-06-05 19:42:00,62.0,51.3,20.60,WNW,300,3.0,7.0,68,0.00,,---,0.00,VWS V13.01,2013-06-06 02:42:00,
2013-06-05 19:47:00,61.7,51.4,20.60,WSW,256,4.0,7.0,69,0.00,,---,0.00,VWS V13.01,2013-06-06 02:47:00,
2013-06-05 19:52:00,61.6,51.7,20.60,West,259,3.0,7.0,70,0.00,,---,0.00,VWS V13.01,2013-06-06 02:52:00,
2013-06-05 19:57:00,61.1,51.2,20.60,NW,323,3.0,11.0,70,0.00,,---,0.00,VWS V13.01,2013-06-06 02:57:00,
2013-06-05 19:58:00,58.0,50.1,20.58,WNW,302,0.0,9.0,75,0.00,,---,0.00,VWS V13.01,2013-06-06 02:58:00,
2013-06-05 19:59:00,57.9,50.0,20.58,WNW,302,0.0,9.0,75,0.00,,---,0.00,VWS V13.01,2013-06-06 02:59:00,
2013-06-05 20:00:00,57.8,49.9,20.58,WNW,301,0.0,9.0,75,0.00,,---,0.00,VWS V13.01,2013-06-06 03:00:00,
2013-06-05 20:01:00,57.8,49.9,20.58,WNW,301,0.0,0.0,75,0.00,,---,0.00,VWS V13.01,2013-06-06 03:01:00,
2013-06-05 20:02:00,60.9,51.5,20.60,West,263,2.0,11.0,71,0.00,,---,0.00,VWS V13.01,2013-06-06 03:02:00,
2013-06-05 20:03:00,57.7,50.2,20.60,WNW,302,1.0,2.0,76,0.00,,---,0.00,VWS V13.01,2013-06-06 03:03:00,
2013-06-05 20:07:00,61.1,51.2,20.60,WNW,298,0.0,6.0,70,0.00,,---,0.00,VWS V13.01,2013-06-06 03:07:00,
2013-06-05 20:12:00,61.1,51.2,20.58,West,273,3.0,6.0,70,0.00,,---,0.00,VWS V13.01,2013-06-06 03:12:00,
2013-06-05 20:17:00,60.7,51.2,20.58,West,280,3.0,6.0,71,0.00,,---,0.00,VWS V13.01,2013-06-06 03:17:00,
2013-06-05 20:22:00,60.4,51.0,20.58,West,269,3.0,6.0,71,0.00,,---,0.00,VWS V13.01,2013-06-06 03:22:00,
2013-06-05 20:27:00,59.9,50.5,20.58,NW,304,5.0,9.0,71,0.00,,---,0.00,VWS V13.01,2013-06-06 03:27:00,
2013-06-05 20:32:00,59.6,51.0,20.58,NW,305,1.0,9.0,73,0.00,,---,0.00,VWS V13.01,2013-06-06 03:32:00,
2013-06-05 20:37:00,59.4,50.8,20.58,West,281,0.0,9.0,73,0.00,,---,0.00,VWS V13.01,2013-06-06 03:37:00,
2013-06-05 20:42:00,59.1,50.5,20.58,West,281,0.0,9.0,73,0.00,,---,0.00,VWS V13.01,2013-06-06 03:42:00,
2013-06-05 20:47:00,58.9,50.6,20.58,WNW,288,0.0,9.0,74,0.00,,---,0.00,VWS V13.01,2013-06-06 03:47:00,
2013-06-05 20:52:00,58.6,50.3,20.58,NW,313,0.0,9.0,74,0.00,,---,0.00,VWS V13.01,2013-06-06 03:52:00,
2013-06-05 20:57:00,58.2,50.3,20.58,NW,319,2.0,9.0,75,0.00,,---,0.00,VWS V13.01,2013-06-06 03:57:00,
2013-06-05 21:04:00,57.7,50.2,20.58,WNW,300,0.0,0.0,76,0.00,,---,0.00,VWS V13.01,2013-06-06 04:04:00,
2013-06-05 21:09:00,57.5,50.0,20.60,WNW,302,0.0,3.0,76,0.00,,---,0.00,VWS V13.01,2013-06-06 04:09:00,
2013-06-05 21:14:00,57.3,50.2,20.60,NW,326,0.0,3.0,77,0.00,,---,0.00,VWS V13.01,2013-06-06 04:14:00,
2013-06-05 21:19:00,57.2,50.1,20.60,NNW,331,0.0,3.0,77,0.00,,---,0.00,VWS V13.01,2013-06-06 04:19:00,
2013-06-05 21:24:00,57.1,50.0,20.60,NNW,327,0.0,3.0,77,0.00,,---,0.00,VWS V13.01,2013-06-06 04:24:00,
2013-06-05 21:29:00,56.9,49.8,20.60,NNW,344,0.0,3.0,77,0.00,,---,0.00,VWS V13.01,2013-06-06 04:29:00,
2013-06-05 21:34:00,56.8,49.7,20.60,NNW,344,0.0,3.0,77,0.00,,---,0.00,VWS V13.01,2013-06-06 04:34:00,
2013-06-05 21:39:00,56.7,49.9,20.60,NNW,344,0.0,3.0,78,0.00,,---,0.00,VWS V13.01,2013-06-06 04:39:00,
2013-06-05 21:44:00,56.6,49.8,20.60,NNW,344,0.0,3.0,78,0.00,,---,0.00,VWS V13.01,2013-06-06 04:44:00,
2013-06-05 21:49:00,56.5,49.7,20.60,NNW,344,0.0,3.0,78,0.00,,---,0.00,VWS V13.01,2013-06-06 04:49:00,
2013-06-05 21:54:00,56.4,49.6,20.60,NNW,344,0.0,3.0,78,0.00,,---,0.00,VWS V13.01,2013-06-06 04:54:00,
2013-06-05 21:59:00,56.3,49.5,20.60,NNW,344,0.0,3.0,78,0.00,,---,0.00,VWS V13.01,2013-06-06 04:59:00,
2013-06-05 22:04:00,56.3,49.5,20.60,NNW,344,0.0,0.0,78,0.00,,---,0.00,VWS V13.01,2013-06-06 05:04:00,
2013-06-05 22:09:00,56.3,49.5,17.22,NNW,344,0.0,0.0,78,0.00,,---,0.00,VWS V13.01,2013-06-06 05:09:00,
2013-06-05 22:14:00,56.4,49.6,17.22,NNW,344,0.0,0.0,78,0.00,,---,0.00,VWS V13.01,2013-06-06 05:14:00,
2013-06-05 22:19:00,56.3,49.5,17.22,NNW,344,0.0,0.0,78,0.00,,---,0.00,VWS V13.01,2013-06-06 05:19:00,
2013-06-05 22:24:00,56.1,49.3,17.22,NNW,344,0.0,1.0,78,0.00,,---,0.00,VWS V13.01,2013-06-06 05:24:00,
2013-06-05 22:29:00,55.9,49.2,17.22,NNW,343,0.0,1.0,78,0.00,,---,0.00,VWS V13.01,2013-06-06 05:29:00,
2013-06-05 22:34:00,55.6,49.2,17.22,NNW,331,0.0,3.0,79,0.00,,---,0.00,VWS V13.01,2013-06-06 05:34:00,
2013-06-05 22:39:00,55.4,49.0,17.22,SW,232,2.0,6.0,79,0.00,,---,0.00,VWS V13.01,2013-06-06 05:39:00,
2013-06-05 22:44:00,55.3,48.9,17.22,SW,226,0.0,6.0,79,0.00,,---,0.00,VWS V13.01,2013-06-06 05:44:00,
2013-06-05 22:49:00,55.3,48.9,17.22,WSW,258,0.0,6.0,79,0.00,,---,0.00,VWS V13.01,2013-06-06 05:49:00,
2013-06-05 22:54:00,55.2,48.8,17.22,West,275,0.0,6.0,79,0.00,,---,0.00,VWS V13.01,2013-06-06 05:54:00,
2013-06-05 22:59:00,55.1,48.7,17.22,WSW,248,0.0,6.0,79,0.00,,---,0.00,VWS V13.01,2013-06-06 05:59:00,
2013-06-05 23:04:00,55.0,49.0,17.22,WSW,248,0.0,1.0,80,0.00,,---,0.00,VWS V13.01,2013-06-06 06:04:00,
2013-06-05 23:09:00,55.0,49.0,17.22,WSW,248,0.0,2.0,80,0.00,,---,0.00,VWS V13.01,2013-06-06 06:09:00,